Powrót do katalogu

FLOCK 4H 25

AktywnyNaukaSSO
NORAD 66728·PAYLOAD·🇺🇸 United States

Wystrzelony Nov 28, 2025 z Vandenberg Space Force Base

Loading…

Następne Przeloty (najbliższe 24 godziny)

TLE

ŚwieżeSource: CelesTrak SupGP

Epoka: Sep 14, 2026, 16:45 UTC

1 66728C 25276BQ  26257.69802083  .00000450  00000+0  20003-4 0  2573
2 66728  97.4118 330.1019 0001298  75.7547 302.2744 15.21590291    11

Śledź FLOCK 4H 25 w czasie rzeczywistym z AllMySat

Download on the App Store